Location: Whispering Pines
(38.8135°N, 122.7125°W)
Time: 04:21:19
(UTC+00:00)

Daily predictions for brighter satellites

Satellite Brightness Start Highest point End
(mag) Time Altitude Azimuth Time Altitude Azimuth Time Altitude Azimuth
Cosmos 1603 3.7 02:27:17 10° NNW 02:32:55 65° ENE 02:38:28 10° SSE
Cosmos 2233 Rocket 4.0 02:27:37 10° S 02:33:51 85° E 02:40:05 10° N
SJ 16-02 3.5 02:32:13 10° SW 02:36:07 31° WNW 02:40:02 10° N
Sich 1 Rocket 4.1 02:34:06 10° SSE 02:38:14 38° E 02:42:26 10° NNE
Cosmos 1975 2.9 02:34:28 10° S 02:38:32 88° ESE 02:42:39 10° N
H-2A R/B 2.7 02:35:17 10° SE 02:39:37 32° ENE 02:44:04 10° N
Okean 2 3.4 02:35:42 10° N 02:39:51 67° E 02:43:57 10° SSE
Meteor 1-21 4.3 02:34:43 10° N 02:40:13 54° ENE 02:45:40 10° SSE
NOSS 2-2 (E) 3.3 02:38:17 10° SW 02:41:46 73° NW 02:45:28 10° NNE
Cosmos 1842 3.2 02:39:58 10° N 02:43:50 68° E 02:47:41 10° SSE
ATLAS 2AS CENTAUR R/B 4.2 02:43:27 10° SE 02:48:01 17° ESE 02:52:35 10° ENE
BREEZE-M DEB (TANK) 3.7 02:45:39 10° NW 02:48:20 30° NNE 02:54:11 11° E
CZ-4 R/B 1.5 02:45:05 10° SSE 02:49:18 86° E 02:53:32 10° N
NOSS 2-2 (D) 3.2 02:47:16 10° SW 02:50:45 77° WNW 02:54:26 10° NNE
Cosmos 1707 3.5 02:50:23 10° NNE 02:53:47 29° ENE 02:57:09 10° SE
USA 116 3.5 02:50:17 10° NNE 02:53:53 74° ESE 02:57:57 10° S
Okean 2 Rocket 3.7 02:50:26 10° SSE 02:54:32 36° E 02:58:39 10° NNE
CENTAUR R/B 4.3 02:48:46 10° NNW 02:55:14 26° NE 03:01:27 12° E
Cosmos 1300 Rocket 4.1 02:52:52 10° SSE 02:56:54 36° E 03:00:58 10° NNE
Ariane Rocket 4.2 02:56:56 12° ESE 03:00:22 23° ENE 03:04:16 10° NNE
Cosmos 1437 2.9 03:01:43 10° NNW 03:04:41 65° W 03:07:38 10° S
DELTA 2 R/B (1) 3.9 02:59:47 10° W 03:05:14 59° SSW 03:09:53 14° SE
Okean-O 3.5 03:00:56 10° S 03:05:16 54° W 03:09:37 10° NNW
YAOGAN 1 2.8 03:01:59 10° S 03:06:17 74° WSW 03:10:37 10° NNW
SJ-6B 4.3 03:08:51 17° ENE 03:09:13 17° ENE 03:11:39 10° NNE
ATLAS 5 CENTAUR R/B 2.8 03:06:16 10° NW 03:09:42 87° ENE 03:21:21 10° SE
ARGOS 3.4 03:04:40 10° SE 03:09:46 47° ENE 03:14:54 10° N
In-Cosmos 22 4.5 03:05:25 10° N 03:10:24 40° ENE 03:15:27 10° SE
SL-08 RB Rocket 4.4 03:09:03 14° SE 03:12:25 33° ENE 03:16:29 10° N
USA 186 2.9 03:14:50 23° ENE 03:14:58 23° ENE 03:17:35 10° NNE
CZ-2C R/B 3.2 03:12:01 10° SSE 03:17:13 84° WSW 03:22:45 10° NNW
CZ-2C R/B 3.2 03:12:09 10° NNE 03:17:15 36° E 03:22:22 10° SSE
Cosmos 2298 Rocket 4.0 03:12:42 10° S 03:17:56 64° ESE 03:23:13 10° NNE
Cosmos 1536 Rocket 4.2 03:16:37 10° NNE 03:20:41 34° ENE 03:22:45 23° SE
MOS 1 Rocket 3.0 03:18:10 10° NNE 03:22:35 84° E 03:26:51 10° S
Cosmos 1025 Rocket 3.2 03:21:05 10° N 03:25:22 52° E 03:28:46 16° SSE
ISS -1.7 03:22:41 10° W 03:25:33 25° NNW 03:28:27 10° NNE
Cosmos 372 Rocket 4.3 03:21:06 10° SSW 03:26:19 72° WNW 03:31:34 10° NNE
Cosmos 1513 Rocket 4.5 03:21:38 10° S 03:27:56 88° E 03:34:10 10° N
Cosmos 2263 Rocket 4.4 03:27:18 10° WSW 03:31:51 26° WNW 03:36:27 10° N
Cosmos 2285 Rocket 4.2 03:26:50 10° S 03:32:45 45° ESE 03:38:43 10° NNE
Cosmos 1844 3.7 03:27:44 10° S 03:33:17 55° ESE 03:38:49 10° NNE
Cosmos 2151 Rocket 3.5 03:31:49 10° S 03:36:14 76° E 03:40:43 10° N
Cosmos 1844 Rocket 2.5 03:32:05 10° SSW 03:37:37 76° ESE 03:43:12 10° NNE
Cosmos 1464 Rocket 4.0 03:32:01 10° S 03:38:07 81° W 03:44:19 10° N
Cosmos 1867 3.6 03:33:05 10° NNW 03:38:34 82° WSW 03:42:28 20° SSE
NOSS 3-2 (A) 4.2 03:31:32 10° NNW 03:39:05 57° NE 03:43:55 26° ESE
CZ-2C R/B 1.5 03:37:37 10° WSW 03:41:03 41° S 03:41:25 39° SSE
Cosmos 2150 Rocket 4.2 03:41:43 10° SSW 03:47:03 77° WNW 03:52:31 10° NNE
Cosmos 1092 Rocket 4.3 03:42:17 10° N 03:48:06 42° ENE 03:49:45 35° ESE
MetOp-A 4.2 03:49:02 36° SE 03:50:52 53° ENE 03:56:05 10° N
Cosmos 1125 Rocket 3.4 03:45:40 10° SSW 03:50:57 77° ESE 03:56:17 10° NNE
MOS 1 4.2 03:53:26 32° SE 03:56:07 66° ENE 04:01:47 10° N
USA 234 3.2 03:52:10 13° NE 03:58:05 60° SE 04:04:31 10° SSW
DMSP B5D2-2 3.9 03:53:55 10° NNE 03:59:13 75° ESE 04:04:29 10° S
Cosmos 1674 3.3 04:00:48 10° N 04:03:41 47° NNE 04:03:41 47° NNE
Cosmos 1805 4.5 04:08:17 32° NNE 04:08:17 32° NNE 04:10:28 10° N
Resurs 01 Rocket 3.3 04:14:24 22° NNE 04:14:24 22° NNE 04:16:20 10° N
NOSS 3-2 (C) 4.2 04:07:15 10° NNW 04:14:51 61° NE 04:17:17 45° ESE
NOSS 3-4 (A) 3.2 04:09:36 10° SSW 04:15:23 66° ESE 04:21:29 10° NE
NOSS 3-4 (C) 3.2 04:09:43 10° SSW 04:15:30 66° ESE 04:17:40 39° NE
Meteor 1-15 Rocket 4.5 04:12:42 10° SSW 04:18:16 68° W 04:23:57 10° N
H-2A R/B 3.9 04:14:53 10° SSW 04:19:01 27° W 04:23:16 10° NW
Cosmos 1048 Rocket 4.3 04:17:04 10° NNW 04:22:22 67° WSW 04:23:44 48° SSW
OBJECT-B 3.7 04:29:43 13° NNW 04:29:43 13° NNW 04:30:09 10° NNW
Okean 1 Rocket 3.6 04:30:30 59° W 04:30:30 59° W 04:34:57 10° N
ATLAS 2AS CENTAUR R/B 2.9 04:30:02 10° SSW 04:37:56 85° ESE 04:45:55 10° NE
Ariane Rocket 4.1 04:37:08 29° SW 04:39:02 40° W 04:43:49 10° NNW
Milstar 3 Cent rocket 3.9 04:40:26 10° SW 04:43:05 20° SSW 04:43:05 20° SSW
CENTAUR R/B 3.1 04:38:47 10° NNW 04:47:07 85° ENE 04:48:39 66° SE
Cosmos 494 Rocket 4.4 04:42:10 10° NNW 04:46:55 59° W 04:46:55 59° W
Cosmos 2082 Rocket 4.2 04:45:24 10° N 04:47:12 16° NNE 04:47:12 16° NNE
Meteor 2-5 Rocket 4.0 04:47:29 10° NNW 04:52:52 65° W 04:52:52 65° W
ATLAS 3B R/B 3.6 04:49:04 10° NNW 04:54:32 35° NNE 04:54:32 35° NNE
USA 238 DEB 4.3 04:56:04 10° NW 05:03:08 53° WSW 05:04:13 49° SW
USA 238 4.3 04:56:10 10° NW 05:03:15 54° WSW 05:04:18 50° SW
COSMOS 2406 4.4 04:59:01 10° NNW 05:02:20 35° N 05:02:20 35° N
USA 234 4.2 05:39:40 39° N 05:40:54 42° NNW 05:46:57 10° W
USA 267 4.4 10:06:05 10° NE 10:09:48 36° ENE 10:09:48 36° ENE
Cosmos 1980 Rocket 3.8 10:34:34 31° NE 10:34:34 31° NE 10:37:41 10° NE
SL-16 R/B 4.4 10:47:26 16° ESE 10:49:00 18° E 10:52:39 10° ENE
ADEOS II 4.0 10:48:11 10° N 10:50:02 22° N 10:50:02 22° N
ARIANE 5 R/B 4.1 10:50:17 10° NNE 10:53:01 31° NNE 10:53:01 31° NNE
IDEFIX/ARIANE 42P 3.6 10:56:57 10° NNE 11:00:51 44° NE 11:00:51 44° NE
SJ 16-02 4.0 11:02:29 10° NNE 11:05:36 19° ENE 11:08:43 10° ESE
H-2A R/B 4.4 11:09:38 10° ESE 11:13:04 23° ENE 11:16:34 10° NNE
Cosmos 1238 Rocket 4.3 11:09:19 10° N 11:15:49 61° E 11:17:48 41° SE
X-37B 4.0 11:23:27 13° ENE 11:23:27 13° ENE 11:23:54 10° ENE
Lacrosse 5 3.5 11:24:36 24° N 11:24:36 24° N 11:27:41 10° NNE
Cosmos 2278 4.4 11:32:05 43° NNW 11:32:05 43° NNW 11:36:25 10° NNE
CZ-4C R/B 4.4 11:54:38 33° N 11:54:38 33° N 11:56:46 10° N
Cosmos 921 Rocket 3.7 11:56:57 42° NNW 11:56:57 42° NNW 11:59:56 10° N
Cosmos 1812 3.3 11:56:56 49° N 11:56:56 49° N 11:59:50 10° N
